Regional Weather Roundup
Issued by NWS Grand Forks, ND

Home | Current Version | Previous Version | Graphics & Text | Print | Product List | Glossary On
Versions: 1 2 3 4 5 6 7 8 9 10 11 12 13 14 15 16 17 18 19 20 21 22 23 24 25 26 27 28 29 30 31 32 33 34 35 36 37 38 39 40 41 42 43 44 45 46 47 48 49 50
000
ASUS43 KFGF 212210
RWRFGF
PRAIRIE TO PINES  WEATHER ROUNDUP
NATIONAL WEATHER SERVICE EASTERN NORTH DAKOTA/GRAND FORKS ND
400 PM CST SUN DEC 21 2014

 **SATELLITE DATA USED TO AUGMENT SKY COVER AT AUTOMATED STATIONS**
 *****  WEATHER ACROSS EASTERN NORTH DAKOTA  *****

CITY           SKY/WX    TMP DP  RH WIND       PRES   REMARKS
GRAND FORKS    CLOUDY    32  30  92 S14       29.60R FOG     WCI  22
GRAND FRKS AFB CLOUDY    31  31 100 S13       29.59R WCI  22
GRAND FRKS NWS   N/A     32 N/A N/A S18         N/A  WCI  20
DEVILS LAKE    CLOUDY    30  25  80 SE14      29.49S WCI  20
FARGO          CLOUDY    34  31  88 SE13      29.59S WCI  25
WAHPETON ARPT  CLOUDY    32  30  93 SE12      29.59F WCI  23
$$

 ***** WEATHER ACROSS CENTRAL AND WESTERN NORTH DAKOTA  *****

CITY           SKY/WX    TMP DP  RH WIND       PRES   REMARKS
BISMARCK       CLEAR     37  28  70 SE8       29.43S
MINOT          CLOUDY    37  30  75 SE10      29.38F
JAMESTOWN      CLOUDY    32  30  92 SE10      29.49F WCI  24
MINOT AFB      CLOUDY    32  32 100 SE10      29.38F WCI  24
GARRISON         N/A     37  31  78 SE10      29.38F
WILLISTON      CLOUDY    37  27  67 CALM      29.33S
DICKINSON      CLOUDY    41  28  60 S7        29.33S
HETTINGER      CLOUDY    40  28  62 SW7       29.37F
$$

 *****  OTHER AIRPORT OBSERVATIONS IN OUR AREA  *****

CITY           SKY/WX    TMP DP  RH WIND       PRES   REMARKS
WALHALLA         N/A     30  30 100 SE12      29.57S FOG     WCI  21
GRAFTON AIRPOR NOT AVBL
VALLEY CITY AR CLOUDY    32  32 100 SE12      29.53F FOG     WCI  23
CANDO          CLOUDY    28  28 100 SE15      29.50S FOG     WCI  17
CAVALIER APRT  CLOUDY    32  32 100 S10       29.58S FOG     WCI  24
GWINNER        CLOUDY    34  34 100 SE15      29.54S WCI  24
SHEYENNE NWR     N/A     33  30  90 SE13      29.95S WCI  24
ROLLA          CLOUDY    27  27 100 SE8       29.48S WCI  18
 ***** THE ABOVE OBSERVATIONS ARE NON NWS ARE NOT QUALITY
       CONTROLLED AND MAY MIS-REPORT RAIN FOR SNOW...
$$

  *****  WEATHER ACROSS NORTHERN MINNESOTA  *****

CITY           SKY/WX    TMP DP  RH WIND       PRES   REMARKS
FLAG ISLAND    CLOUDY    30  28  93 S14       29.64S FOG     WCI  20
WARROAD        CLOUDY    30  28  93 S8        29.65R FOG     WCI  23
ROSEAU         CLOUDY    32  28  86 S9        29.64R FOG     WCI  24
HALLOCK        CLOUDY    30  30 100 CALM      29.60F FOG
THF RVR FALLS  CLOUDY    30  30 100 SE10      29.62F WCI  21
BAUDETTE       CLOUDY    31  28  89 S6        29.66R
WASKISH        CLOUDY    32  30  93 S5        29.67R
CROOKSTON      CLOUDY    32  30  93 S10       29.63S FOG     WCI  24
STEPHEN NDAWN    N/A     30  30 100 S12         N/A  WCI  21
GREENBUSH NDAW   N/A     30  30 100 S1          N/A
$$
  *****  WEATHER ACROSS CENTRAL AND WEST MINNESOTA  *****

CITY           SKY/WX    TMP DP  RH WIND       PRES   REMARKS
FOSSTON        CLOUDY    30  28  93 SE8       29.62F FOG     WCI  23
BEMIDJI        CLOUDY    32  30  94 S10       29.64S FOG     WCI  23
PARK RAPIDS    CLOUDY    33  31  92 SE10      29.63F FOG     WCI  25
ELBOW LAKE     CLOUDY    32  32 100 SE13      29.60F FOG     WCI  22
WADENA         CLOUDY    32  30  93 SE8       29.63S FOG     WCI  25
DETROIT LAKES  CLOUDY    32  32 100 SE12      29.61F FOG     WCI  23
MOORHEAD       CLOUDY    34  34 100 SE14      29.61S FOG     WCI  24
FERGUS FALLS   CLOUDY    34  32  93 SE14      29.63F FOG     WCI  24
MORRIS MN      CLOUDY    34  34 100 SE15      29.59F FOG     WCI  24
STAPLES        CLOUDY    32  32 100 SE7       29.65S FOG
$$
  *****  WEATHER ELSEWHERE ACROSS MINNESOTA  *****

CITY           SKY/WX    TMP DP  RH WIND       PRES   REMARKS
DULUTH         FOG       32  30  92 SE12      29.73F VSB 3/4 WCI  23
INTRNTL FALLS  CLOUDY    31  29  92 S6        29.69S FOG
ELY            MIX PCPN  30  28  93 S6        29.74S WCI  24
CLOQUET        CLOUDY    32  30  93 SE5       29.73F FOG
WHEATON        CLOUDY    32  30  93 SE13      29.60F WCI  22
BRAINERD       CLOUDY    33  32  96 S7        29.68S FOG
HIBBING        CLOUDY    32  29  88 S10       29.71F FOG     WCI  24
ALEXANDRIA     CLOUDY    33  32  96 S12       29.62F FOG     WCI  24
SAINT CLOUD    CLOUDY    36  33  89 SE13      29.69F FOG
MINNEAPOLIS    LGT RAIN  36  34  92 S9        29.75S FOG
$$

  *****  WEATHER ACROSS SOUTH DAKOTA  *****

CITY           SKY/WX    TMP DP  RH WIND       PRES   REMARKS
SIOUX FALLS    CLOUDY    38  35  89 S22       29.58F
BROOKINGS      NOT AVBL
WATERTOWN      CLOUDY    32  31  96 SE12G21   29.52F FOG     WCI  23
HURON          CLEAR     36  32  85 SE12      29.49F
SISSETON         N/A     33  32  96 SE14      29.55F WCI  23
ABERDEEN       CLOUDY    34  30  85 S13       29.52S WCI  25
MITCHELL       CLEAR     37  33  85 S17       29.51F
PIERRE         PTCLDY    34  29  82 E7        29.41S
MOBRIDGE       CLEAR     38  30  73 E12       29.40F
RAPID CITY     CLOUDY    45  26  47 NW10      29.39R
$$

  *****  SOME WEATHER IN NEARBY STATES *****

CITY           SKY/WX    TMP DP  RH WIND       PRES   REMARKS
GLASGOW MT     CLOUDY    32  30  92 NE3       29.30S
GREAT FALLS MT CLOUDY    46  23  40 W18G28    29.47R
CHEYENNE WY    MOSUNNY   45  26  47 W21G35    29.50F
SCOTTSBLUFF NE CLOUDY    43  33  68 W9        29.45S
OMAHA NE       CLOUDY    42  38  85 S15       29.74F
DES MOINES IA  CLOUDY    42  37  82 S15       29.82F
DAVENPORT IA   CLOUDY    38  32  79 SE17      29.96F
CHICAGO IL     CLOUDY    36  29  75 S10       30.08S
EAU CLAIRE WI  LGT RAIN  36  34  92 S12       29.80F FOG
LA CROSSE WI   CLOUDY    39  35  86 S15G23    29.86F FOG
$$

  *****  SOME NATIONAL WEATHER *****

CITY           SKY/WX    TMP DP  RH WIND       PRES   REMARKS
LA GUARDIA NY  CLOUDY    36  28  73 N7        30.30S
RALEIGH NC     CLOUDY    46  34  62 NE6       30.24R
ATLANTA GA     CLOUDY    49  44  83 E10       30.10S
NEW ORLEANS LA CLOUDY    56  51  84 NE8       30.01F
OKLAHOMA CITY  DRIZZLE   47  43  86 S14G21    29.79R FOG
ALBUQUERQUE NM PTSUNNY   50  28  42 CALM      29.92F
SALT LAKE CITY CLOUDY    43  39  86 SE10      29.92S
LOS ANGELES CA PTSUNNY   63  55  75 W5        30.06F
BOISE ID       LGT RAIN  44  41  89 N9        29.98S
SEATTLE WA     CLOUDY    54  45  71 SW14G24   29.99R
$$

*** WEATHER ACROSS MANITOBA...SASKATCHEWAN AND ONTARIO ***
                ***ONTARIO***

CITY           SKY/WX    TMP DP  RH WIND       PRES   REMARKS
GERALDTON      CLOUDY    32  28  86 S8        29.90F WCI  25
THUNDER BAY    NOT AVBL
SIOUX LOOKOUT  LGT SNOW  28  28 100 SE5       29.71F FOG     WCI  23
TORONTO        MOCLDY    32  25  74 SW6       30.29R
BIG TROUT LK   FLURRIES  28  27  93 SE8       29.77F WCI  20
PICKLE LAKE    LGT SNOW  28  27  93 SE8       29.76S WCI  20
DRYDEN         LGT SNOW  28  28 100 SE8       29.69S WCI  20
KENORA         CLOUDY    28  28 100 S12G20    29.65R FOG     WCI  18
$$
                *** MANITOBA***

CITY           SKY/WX    TMP DP  RH WIND       PRES   REMARKS
BRANDON        FOG       27  27 100 E13       29.50R VSB 1/8 WCI  16
DAUPHIN        CLOUDY    28  27  93 NE5       29.53R WCI  23
ISLAND LAKE    DRIZZLE   28  28 100 SE6       29.67R WCI  22
PILOT MOUND      N/A     27  25  93 CALM        N/A
THE PAS        CLOUDY    23  21  93 E5        29.58R WCI  17
THOMPSON       NOT AVBL
WINNIPEG       NOT AVBL
LYNN LAKE      FLURRIES  14  12  92 E2        29.65R
$$
                ***SASKATCHEWAN***

CITY           SKY/WX    TMP DP  RH WIND       PRES   REMARKS
ESTEVAN        MOCLDY    27  25  93 E10       29.35R WCI  17
KINDERSLEY     CLOUDY    21  18  86 N12       29.35R WCI   9
LLOYDMINSTER   NOT AVBL
PRINCE ALBERT  CLOUDY    23  23 100 E12       29.47R FOG     WCI  12
REGINA         PTCLDY    25  25 100 E14       29.34S WCI  13
YORKTON        CLOUDY    27  25  93 E12       29.44S FOG     WCI  16
N. BATTLEFORD  CLOUDY    21  21 100 NE6       29.44R WCI  14
LA RONGE       NOT AVBL
SASKATOON      NOT AVBL
SWIFT CURRENT  NOT AVBL
$$
NOTE: THESE ARE AUTOMATED STATIONS WITH LIMITED QUALITY CONTROL
      "FAIR" INDICATES FEW OR NO CLOUDS BELOW 12,000 FEET WITH NO
      SIGNIFICANT WEATHER AND/OR OBSTRUCTIONS TO VISIBILITY.
      SKY/WX - SKY CONDITION AND SIGNIFICANT WEATHER.
      TMP - AIR TEMPERATURE.    DP   - DEWPOINT TEMPERATURE.
      RH  - RELATIVE HUMIDITY.  PRES - PRESSURE.
      HX  - HEAT INDEX.         WCI  - WIND CHILL INDEX.
$


USA.gov is the U.S. government's official web portal to all federal, state and local government web resources and services.